Location: ??????????
(54.7560°N, 39.1389°E)
Time: 01:12:48
(UTC+00:00)

Ariane Rocket - Pass Details

Date: 19 May 2025
Orbit: 756 x 764 km, 98.5° (Epoch: 13 June)

Event Time Altitude Azimuth Distance (km) Brightness Sun altitude
Exits shadow 19:36:50 - 198° (SSW) 2,493 5.2 -12.1°
Reaches altitude 10° 19:37:24 10° 201° (SSW) 2,292 5.1 -12.1°
Maximum altitude 19:41:57 33° 265° (W) 1,260 4.3 -12.4°
Drops below altitude 10° 19:46:34 10° 330° (NNW) 2,312 7.0 -12.7°
Sets 19:49:06 0° 340° (NNW) 3,244 8.4 -12.8°
